Regional Weather Roundup
Issued by NWS Sioux Falls, SD

Home | Current Version | Previous Version | Graphics & Text | Print | Product List | Glossary Off
Versions: 1 2 3 4 5 6 7 8 9 10 11 12 13 14 15 16 17 18 19 20 21 22 23 24 25 26 27 28 29 30 31 32 33 34 35 36 37 38 39 40 41 42 43 44 45 46 47 48 49 50

000
ASUS43 KFSD 190302
RWRFSD

WEATHER ROUNDUP FOR SE SOUTH DAKOTA/SW MINNESOTA/NW IOWA
NATIONAL WEATHER SERVICE SIOUX FALLS SD
900 PM CST WED JAN 18 2017

NOTE: "FAIR" INDICATES FEW OR NO CLOUDS BELOW 12,000 FEET WITH NO
SIGNIFICANT WEATHER AND OR OBSTRUCTIONS TO VISIBILITY.


SDZ038>040-050-052>070-190400-
SOUTHEAST SOUTH DAKOTA

CITY           SKY/WX    TMP DP  RH WIND       PRES   REMARKS
BROOKINGS      CLOUDY    34  32  92 S12       29.73F WCI  25
CHAMBERLAIN    CLOUDY    32  28  84 SE5       29.66F WCI  28
HURON          CLOUDY    35  33  92 S13       29.69F WCI  26
MADISON          N/A     34  34 100 S12         N/A  WCI  25
MITCHELL       CLOUDY    36  34  92 S10       29.72F
SIOUX FALLS    CLEAR     40  37  89 S14       29.77S
WINNER         FAIR      43  25  49 SW9       29.65F
YANKTON        CLEAR     39  36  87 S13       29.76F
$$

MNZ071-072-080-081-089-090-097-098-190400-
SOUTHWEST MINNESOTA

CITY           SKY/WX    TMP DP  RH WIND       PRES   REMARKS
FAIRMONT       CLEAR     36  34  92 S16       29.84F
JACKSON        CLEAR     36  32  87 S13       29.82F
LUVERNE        CLEAR     34  32  93 S10       29.79F WCI  26
MARSHALL       CLOUDY    38  35  89 S17       29.75S
MONTEVIDEO     CLOUDY    28  28 100 S7        29.78S WCI  21
PIPESTONE      CLEAR     39  36  87 SW16      29.75F
REDWOOD FALLS  CLOUDY    32  30  92 SE7       29.79S FOG     WCI  26
TRACY          CLEAR     40  37  89 SW15      29.76F
WINDOM           N/A     39  36  87 S15       29.80S
WORTHINGTON    CLEAR     38  35  89 S15       29.80F
$$

IAZ001>003-012>014-020>022-031-032-NEZ013-014-SDZ071-190400-
NORTHWEST IOWA

CITY           SKY/WX    TMP DP  RH WIND       PRES   REMARKS
CHEROKEE       CLEAR     37  36  98 S8        29.85S
DENISON        CLEAR     39  36  87 S6        29.88R
ESTHERVILLE    CLEAR     35  34  96 S14       29.83F WCI  26
LE MARS        CLEAR     39  36  87 S12       29.83F
ORANGE CITY    CLEAR     37  36  93 S9        29.81F
SHELDON        CLEAR     37  37 100 S13       29.80F
SIOUX CITY     CLEAR     40  36  86 SE9       29.84F
SPENCER        CLEAR     37  35  92 S12       29.83F
STORM LAKE     CLEAR     36  34  93 S15       29.85F
$$

ABBREVIATIONS USED IN REMARKS
   TC - TEMPERATURE IN CELSIUS
  WCI - WIND CHILL INDEX
   HX - HEAT INDEX
  VSB - VISIBILITY




USA.gov is the U.S. government's official web portal to all federal, state and local government web resources and services.